STARLINK-35724 (66279 NORAD) Tracking and Keplerian Element Data

This shows tracking and keplerian element data for the satellite.

Feedback or suggestion? Click here.




ElementValue
Catalog66279
NameSTARLINK-35724
Epoch Orbit589
Epoch Day354.00002315
Epoch Year2025
RAAN203.1245
Inclination53.157
Eccentricity0.0001286
Argument of Perigee90.0749
Mean Anonmoly182.6507
Mean Motion15.39589268
Decay Rate0.00056259
L11 66279U 25247Q 25354.00002315 .00056259 00000+0 14075-2 0 9995
L22 66279 53.1570 203.1245 0001286 90.0749 182.6507 15.39589268 5893



Live tracking and technical data element details for STARLINK-35724 (NORAD 66279). STARLINK-35724 can be tracked NOW for your location showing map with azimuth and elevation plus other details from your city location.







IsCatalogInMostPopularTable: catalog: 66279, numindb: 13
Update: records affected: 1



GetName: 66279 STARLINK-35724

Hit Count: updated at: Thu, 21 May 2026 11:45:43 GMT